[[{"header":{"parameterUnit":"m.s-1","parameterCategory":1,"la1":30.2991,"la2":30.254,"lo1":-89.0895,"lo2":-89.0444,"dy":0.0017,"dx":0.0017,"nx":28,"ny":28,"refTime":"2024-06-22T21:00:00:Z","depth":0,"parameterNumber":2,"parameterNumberName":"U-component_of_WINDS"},"data":[0,0,0,0,0,0,0,0,0,0,0,0,0,0,0,0,0,0,0,0,0,0,0,0,0,0,0,0,0,0,0,0,0,0,0,0,0,0,0,0,0,0,0,0,0,0,0,0,0,0,0,0,0,0,0,0,0,0,0.266,0.2661,0,0.2769,0.277,0.2772,0.2819,0.2819,0.2819,0.2819,0.2932,0.2935,0.2939,0,0,0,0,0,0,0,0,0,0,0,0,0,0.2492,0.2495,0.266,0.2661,0.2662,0.2769,0.277,0.2772,0.2819,0.2819,0.2819,0.2819,0.2931,0.2935,0.2939,0,0,0,0,0,0,0,0,0,0,0,0,0,0.2579,0.2495,0.2659,0.2699,0.2703,0.2769,0.277,0.2772,0.2819,0.2819,0.2819,0.2819,0.293,0.2935,0.2939,0.2974,0,0,0.2954,0.2956,0,0,0,0,0,0,0,0,0.2574,0.2585,0.2692,0.2696,0.2702,0.278,0.2753,0.284,0.2819,0.2775,0.2819,0.2818,0.2882,0.2891,0.2912,0.2979,0.2984,0.2954,0.2957,0.2959,0.2961,0,0,0,0,0,0,0,0.2568,0.2581,0.2703,0.2693,0.2699,0.2711,0.2723,0.277,0.2829,0.2779,0.2783,0.2795,0.2885,0.2907,0.2915,0.2986,0.2954,0.2959,0.2961,0.2963,0.3086,0.3086,0,0,0,0,0,0,0.2555,0.2576,0.27,0.2706,0.2636,0.2714,0.2728,0.2755,0.2828,0.2839,0.2795,0.2797,0.2899,0.2909,0.2919,0.2964,0.2959,0.2964,0.2967,0.3086,0.3086,0.3087,0,0,0,0,0,0,0.2552,0.2566,0.2695,0.2642,0.2659,0.2717,0.2748,0.2758,0.278,0.2841,0.2851,0.2807,0.2899,0.2912,0.296,0.2969,0.2966,0.297,0.3085,0.3086,0.3086,0.3054,0,0,0,0,0,0,0.2547,0.2564,0.2578,0.2642,0.2662,0.2734,0.2748,0.276,0.2788,0.2791,0.2855,0.2865,0.29,0.2952,0.2964,0.2975,0.2974,0.3085,0.3085,0.3086,0.3055,0.3053,0.3052,0,0,0,0,0,0.254,0.2565,0.2579,0.2593,0.268,0.2734,0.2746,0.2785,0.2789,0.2803,0.2841,0.2863,0.2965,0.2957,0.2971,0.2983,0.3084,0.3085,0.3086,0.3055,0.3054,0.3052,0,0,0,0,0,0,0.2502,0.2574,0.259,0.2636,0.2678,0.2742,0.2761,0.2782,0.2825,0.2826,0.2874,0.2888,0.2931,0.2962,0.2951,0.302,0.3027,0.303,0.2998,0.2997,0.2996,0.2988,0.2978,0,0,0,0,0,0.2498,0.2536,0.2597,0.2632,0.2652,0.2703,0.2728,0.2754,0.28,0.2819,0.2861,0.2905,0.2947,0.2974,0.3016,0.3059,0.3073,0.3074,0.3073,0.3072,0.3075,0.3099,0.31,0.3089,0.3089,0.3089,0,0,0.2492,0.2537,0.2558,0.2625,0.2661,0.2699,0.2718,0.2757,0.2786,0.2825,0.2872,0.2904,0.2956,0.3001,0.3023,0.3028,0.3081,0.3073,0.3072,0.3075,0.31,0.3101,0.3102,0.309,0.309,0.309,0,0,0.25,0.2538,0.257,0.2606,0.2659,0.2693,0.27,0.2761,0.2783,0.2831,0.2861,0.2895,0.2967,0.3003,0.303,0.305,0.3071,0.3062,0.3057,0.308,0.3081,0.3082,0.3089,0.3091,0.3065,0.3065,0.3065,0,0.2486,0.2544,0.2585,0.2622,0.2651,0.2687,0.272,0.2753,0.2818,0.2837,0.2841,0.2931,0.2969,0.3022,0.3026,0.3048,0.3058,0.3056,0.3077,0.3079,0.308,0.3087,0.309,0.3063,0.3063,0.3063,0.3064,0,0.2523,0.2563,0.2583,0.2644,0.2675,0.271,0.2756,0.2782,0.2805,0.2838,0.2886,0.2932,0.2983,0.2998,0.3022,0.3055,0.3056,0.3068,0.3076,0.3079,0.3087,0.309,0.3061,0.3062,0.3062,0.3062,0,0,0.2511,0.2593,0.26,0.2628,0.2689,0.2721,0.2757,0.2807,0.2828,0.2871,0.2903,0.2962,0.2973,0.3004,0.3032,0.3052,0.3064,0.3062,0.3064,0.3061,0.3103,0.3094,0.3096,0.3078,0.3079,0.308,0.3099,0,0.2528,0.2595,0.2632,0.2683,0.272,0.2754,0.2786,0.2826,0.2857,0.2893,0.2928,0.2968,0.298,0.2999,0.3021,0.3058,0.3073,0.3057,0.3108,0.311,0.3095,0.31,0.3091,0.3107,0.3102,0.3102,0.3103,0,0.2556,0.2598,0.2653,0.2709,0.2726,0.2754,0.2802,0.2836,0.2882,0.2904,0.2937,0.2964,0.3004,0.3008,0.3062,0.3051,0.3073,0.3095,0.3096,0.3103,0.3107,0.3107,0.3113,0.3115,0.3108,0.3107,0.3107,0,0.2542,0.2612,0.2654,0.2676,0.2743,0.2762,0.279,0.2837,0.2864,0.2906,0.2924,0.297,0.2995,0.303,0.3069,0.3068,0.312,0.3127,0.3138,0.3137,0.3149,0.3147,0.3158,0.3162,0.3162,0.3162,0.3162,0,0.2557,0.2589,0.2648,0.2674,0.271,0.2752,0.2787,0.2819,0.2859,0.2892,0.2924,0.2953,0.3002,0.3038,0.3068,0.3109,0.312,0.3138,0.3146,0.3136,0.3133,0.3152,0.3152,0.3163,0.3163,0.3163,0.3163,0,0.2547,0.2588,0.2636,0.2695,0.271,0.2735,0.2785,0.2811,0.2843,0.2883,0.2895,0.2945,0.2989,0.303,0.3089,0.3109,0.3149,0.316,0.3133,0.3138,0.3147,0.3145,0.317,0.3175,0.3175,0.3175,0.3175,0,0.2554,0.258,0.2641,0.2665,0.2692,0.273,0.2758,0.28,0.2827,0.2882,0.2901,0.2946,0.2985,0.3052,0.3094,0.3139,0.315,0.3156,0.3157,0.3146,0.3151,0.3149,0.3151,0.3155,0.3155,0.3155,0.3154,0,0.2562,0.2581,0.2619,0.2665,0.2697,0.2735,0.2774,0.2791,0.284,0.287,0.2914,0.2944,0.3002,0.3047,0.3096,0.3126,0.3148,0.3153,0.3158,0.3148,0.3132,0.3141,0.3131,0.3153,0.3153,0.3153,0.3153,0.3153,0.2561,0.2585,0.2632,0.2674,0.2707,0.2743,0.277,0.2805,0.2842,0.2893,0.2915,0.296,0.3005,0.3073,0.3102,0.3137,0.3143,0.315,0.3152,0.3154,0.3151,0.3126,0.3147,0.3147,0.3147,0.3147,0.3147,0,0.2571,0.2602,0.264,0.2694,0.2726,0.2744,0.2788,0.2814,0.2852,0.2893,0.293,0.298,0.3023,0.3068,0.3113,0.3133,0.3144,0.3143,0.3143,0.3149,0.3144,0.3135,0.3133,0.3133,0.3133,0.3133,0.3133,0.3133,0.258,0.2621,0.2645,0.2703,0.2734,0.2778,0.2802,0.2834,0.2866,0.2921,0.2957,0.2986,0.3027,0.3076,0.3116,0.3128,0.3143,0.314,0.3154,0.3149,0.315,0.315,0.3142,0.3143,0.3143,0.3157,0.3157,0.3157]},{"header":{"parameterUnit":"m.s-1","parameterCategory":1,"la1":30.2991,"la2":30.254,"lo1":-89.0895,"lo2":-89.0444,"dy":0.0017,"dx":0.0017,"nx":28,"ny":28,"refTime":"2024-06-22T21:00:00:Z","depth":0,"parameterNumber":3,"parameterNumberName":"V-component_of_WINDS"},"data":[0,0,0,0,0,0,0,0,0,0,0,0,0,0,0,0,0,0,0,0,0,0,0,0,0,0,0,0,0,0,0,0,0,0,0,0,0,0,0,0,0,0,0,0,0,0,0,0,0,0,0,0,0,0,0,0,0,0,4.3015,4.3014,0,4.2991,4.2991,4.2991,4.2992,4.2992,4.2992,4.2993,4.2963,4.2962,4.2961,0,0,0,0,0,0,0,0,0,0,0,0,0,4.3055,4.3055,4.3015,4.3014,4.3014,4.2991,4.2991,4.2991,4.2992,4.2992,4.2992,4.2993,4.2964,4.2962,4.2961,0,0,0,0,0,0,0,0,0,0,0,0,0,4.3035,4.3054,4.3015,4.3012,4.3011,4.2991,4.2991,4.2991,4.2992,4.2992,4.2993,4.2993,4.2964,4.2963,4.2961,4.2941,0,0,4.2956,4.2955,0,0,0,0,0,0,0,0,4.3036,4.3034,4.3013,4.3012,4.3012,4.2995,4.2995,4.2974,4.2991,4.2999,4.2993,4.2993,4.2973,4.2971,4.2965,4.2939,4.2938,4.2956,4.2955,4.2954,4.2954,0,0,0,0,0,0,0,4.3038,4.3035,4.3005,4.3012,4.3012,4.301,4.3008,4.2991,4.2983,4.2998,4.2998,4.2996,4.2973,4.2967,4.2964,4.2938,4.2956,4.2954,4.2953,4.2953,4.2894,4.2893,0,0,0,0,0,0,4.304,4.3036,4.3006,4.3005,4.3026,4.3009,4.3007,4.3,4.2984,4.2982,4.2995,4.2996,4.2969,4.2966,4.2963,4.2939,4.2954,4.2953,4.2952,4.2894,4.2894,4.2893,0,0,0,0,0,0,4.3041,4.3038,4.3007,4.302,4.3016,4.3008,4.3,4.2999,4.2993,4.2981,4.298,4.2991,4.297,4.2966,4.2947,4.2938,4.2952,4.295,4.2895,4.2894,4.2893,4.2889,0,0,0,0,0,0,4.3043,4.3038,4.3031,4.302,4.3016,4.2992,4.3,4.2998,4.2991,4.2991,4.2977,4.2975,4.297,4.2949,4.2945,4.2936,4.2949,4.2896,4.2895,4.2894,4.289,4.2888,4.2887,0,0,0,0,0,4.3044,4.303,4.3031,4.3027,4.3007,4.2992,4.2989,4.2985,4.299,4.2982,4.2975,4.2975,4.294,4.2947,4.2943,4.2933,4.2896,4.2895,4.2894,4.2891,4.2889,4.2887,0,0,0,0,0,0,4.3038,4.3028,4.3029,4.3012,4.3003,4.2992,4.2982,4.2983,4.2971,4.2971,4.2965,4.2962,4.2943,4.2936,4.2945,4.2912,4.2918,4.2916,4.2918,4.2916,4.2914,4.2916,4.2948,0,0,0,0,0,4.3035,4.3025,4.3016,4.3001,4.2997,4.299,4.2983,4.2981,4.2971,4.2967,4.2958,4.2947,4.2933,4.2924,4.291,4.2889,4.2886,4.288,4.2878,4.2877,4.2875,4.2863,4.2861,4.2889,4.2889,4.2889,0,0,4.3028,4.3021,4.3015,4.3,4.2993,4.2981,4.2987,4.2974,4.2965,4.2964,4.2946,4.2939,4.2926,4.2906,4.2897,4.2899,4.2867,4.2875,4.2875,4.2873,4.2862,4.2859,4.2857,4.2888,4.2888,4.2888,0,0,4.3009,4.3003,4.2991,4.2984,4.2974,4.297,4.2966,4.2956,4.2952,4.2934,4.2934,4.2922,4.2898,4.2889,4.2881,4.286,4.2859,4.2856,4.2847,4.2836,4.2833,4.2831,4.2824,4.2821,4.2854,4.2854,4.2854,0,4.3001,4.2985,4.2983,4.2971,4.2964,4.2965,4.2951,4.2944,4.2929,4.2924,4.2928,4.2899,4.289,4.2868,4.2863,4.2857,4.2852,4.2857,4.2834,4.2832,4.283,4.2823,4.282,4.2854,4.2854,4.2854,4.2854,0,4.2975,4.2964,4.2955,4.2943,4.2935,4.2921,4.2917,4.2909,4.2908,4.2903,4.2884,4.2874,4.2859,4.2854,4.2852,4.2831,4.2833,4.2836,4.2842,4.2827,4.282,4.2817,4.2853,4.2853,4.2853,4.2853,0,0,4.2951,4.294,4.2936,4.2931,4.292,4.2911,4.2897,4.2885,4.2878,4.2867,4.2855,4.2836,4.2839,4.283,4.2827,4.2817,4.2801,4.282,4.282,4.2817,4.2778,4.2776,4.2773,4.2801,4.28,4.28,4.2779,0,4.2931,4.291,4.2908,4.2888,4.2877,4.2878,4.2867,4.2858,4.2853,4.2842,4.2836,4.2823,4.2827,4.2822,4.2812,4.2805,4.2793,4.2806,4.2788,4.2787,4.2791,4.2769,4.2767,4.2748,4.2776,4.2775,4.2775,0,4.2905,4.2896,4.2876,4.2867,4.2862,4.2852,4.2841,4.2831,4.282,4.2818,4.2809,4.2807,4.2792,4.2799,4.2778,4.2787,4.278,4.2775,4.2774,4.2772,4.278,4.2766,4.2741,4.2739,4.2771,4.2771,4.2771,0,4.289,4.2872,4.2858,4.2853,4.2843,4.2836,4.2831,4.2822,4.2814,4.2803,4.2799,4.2785,4.2778,4.2767,4.2762,4.2768,4.2741,4.2748,4.2737,4.2737,4.2731,4.2731,4.2705,4.2727,4.2727,4.2727,4.2727,0,4.2867,4.2854,4.2851,4.2842,4.2828,4.2826,4.2811,4.2806,4.2798,4.2787,4.2786,4.2776,4.277,4.2758,4.2753,4.2736,4.2733,4.2729,4.2728,4.2729,4.273,4.2724,4.2725,4.2726,4.2726,4.2726,4.2726,0,4.2847,4.2845,4.2829,4.2821,4.2819,4.2809,4.2801,4.2792,4.2788,4.2774,4.2771,4.2763,4.275,4.2744,4.2726,4.2723,4.2703,4.2703,4.2707,4.2707,4.2697,4.2698,4.2665,4.2661,4.2686,4.2686,4.2685,0,4.2833,4.2824,4.2816,4.2809,4.2805,4.2794,4.2787,4.2785,4.2777,4.2766,4.2757,4.2744,4.2734,4.2711,4.2703,4.269,4.2689,4.2679,4.2687,4.2688,4.2689,4.2689,4.2688,4.2677,4.2677,4.2676,4.2676,0,4.2809,4.2808,4.2799,4.279,4.2782,4.2774,4.2766,4.276,4.2756,4.2747,4.2735,4.2726,4.2709,4.2696,4.2682,4.2675,4.2675,4.2674,4.2671,4.2672,4.2675,4.2673,4.2703,4.2675,4.2675,4.2675,4.2675,4.2675,4.2791,4.2783,4.2776,4.2766,4.276,4.2753,4.2744,4.274,4.273,4.2717,4.2716,4.2702,4.2692,4.2674,4.2666,4.2654,4.2657,4.2652,4.2651,4.265,4.2649,4.2677,4.2652,4.2652,4.2652,4.2652,4.2652,0,4.2766,4.2763,4.2753,4.2743,4.2735,4.2738,4.2729,4.2722,4.271,4.2702,4.2692,4.2677,4.2664,4.2656,4.2642,4.2634,4.2634,4.2631,4.2631,4.263,4.2648,4.2652,4.2632,4.2632,4.2632,4.2632,4.2632,4.2632,4.2753,4.2739,4.2738,4.2721,4.2717,4.2705,4.27,4.2693,4.2686,4.267,4.266,4.2656,4.2647,4.2633,4.2621,4.2619,4.2614,4.2611,4.2609,4.2626,4.2628,4.263,4.2634,4.261,4.261,4.2592,4.2591,4.2591]}]]